This is the latest recevied weather packets stored in our database for station/object K3JSE-2. If no packets are shown the sender has not sent any weather packets the latest 10 day(s).
| Time | Temp. | Humidity | Pressure | Rain* | Wind** | Luminosity | Snow |
|---|---|---|---|---|---|---|---|
| 1778010848 | 26.67° C | 38% | 1008.7 hPa | 0 mm | - | - | - |
| 1778010578 | 26.67° C | 37% | 1008.7 hPa | 0 mm | - | - | - |
| 1778010298 | 26.67° C | 40% | 1008.7 hPa | 0 mm | - | - | - |
| 1778010028 | 26.67° C | 37% | 1008.8 hPa | 0 mm | - | - | - |
| 1778009748 | 26.67° C | 38% | 1008.8 hPa | 0 mm | - | - | - |
| 1778009575 | 26.67° C | 37% | 1008.8 hPa | 0 mm | - | - | - |
| 1778009488 | 26.67° C | 38% | 1008.8 hPa | 0 mm | - | - | - |
| 1778009248 | 26.67° C | 38% | 1008.8 hPa | 0 mm | - | - | - |
| 1778009001 | 26.67° C | 37% | 1009 hPa | 0 mm | - | - | - |
| 1778008883 | 26.67° C | 37% | 1008.9 hPa | 0 mm | - | - | - |
| 1778008758 | 26.67° C | 37% | 1009 hPa | 0 mm | - | - | - |
| 1778008478 | 26.67° C | 38% | 1009.2 hPa | 0 mm | - | - | - |
| 1778008223 | 26.11° C | 35% | 1009.1 hPa | 0 mm | - | - | - |
| 1778007948 | 26.67° C | 35% | 1009.1 hPa | 0 mm | - | - | - |
| 1778007653 | 26.67° C | 38% | 1009.2 hPa | 0 mm | - | - | - |
| 1778007555 | 26.67° C | 37% | 1009.2 hPa | 0 mm | - | - | - |
| 1778007403 | 26.67° C | 38% | 1009.1 hPa | 0 mm | - | - | - |
| 1778007150 | 26.67° C | 36% | 1009.2 hPa | 0 mm | - | - | - |
| 1778006856 | 26.67° C | 35% | 1009.2 hPa | 0 mm | - | - | - |
| 1778006588 | 26.67° C | 36% | 1009.3 hPa | 0 mm | - | - | - |
| 1778006318 | 26.67° C | 36% | 1009.3 hPa | 0 mm | - | - | - |
| 1778006053 | 27.22° C | 38% | 1009.2 hPa | 0 mm | - | - | - |
| 1778005763 | 26.67° C | 37% | 1009.4 hPa | 0 mm | - | - | - |
| 1778005580 | 26.67° C | 37% | 1009.3 hPa | 0 mm | - | - | - |
| 1778005513 | 26.67° C | 38% | 1009.2 hPa | 0 mm | - | - | - |
* Rain latest hour (hover to see other rain measurements)
** Current wind speed in m/s (hover to see current wind gust speed)